24.8,12.5,1020.6,202008090030
24.8,11.6,1020.5,202008090100
24.2,11.8,1020.4,202008090130
23.8,13.6,1020.5,202008090200
23.6,13.6,1020.5,202008090230
24.0,11.5,1020.6,202008090300
23.8,13.5,1020.6,202008090330
23.7,14.3,1020.7,202008090400
23.4,14.1,1020.8,202008090430
24.6,11.8,1020.9,202008090500
25.5,11.1,1021.0,202008090530
26.4,11.5,1021.0,202008090600
26.6,13.0,1021.0,202008090630
30.3,13.1,1021.1,202008090700
31.5,8.6,1021.0,202008090730
29.7,9.0,1021.1,202008090800
29.9,9.0,1021.2,202008090830
30.7,8.5,1021.1,202008090900
28.8,8.6,1021.0,202008090930
27.6,8.8,1020.8,202008091000
28.4,6.1,1020.7,202008091030
27.9,10.1,1020.4,202008091100
27.8,10.1,1020.2,202008091130
27.6,7.5,1020.0,202008091200
28.3,4.9,1019.9,202008091230
28.5,6.1,1019.9,202008091300
28.5,7.1,1019.5,202008091330
28.7,7.3,1019.5,202008091400
28.1,9.0,1019.2,202008091430
28.2,10.3,1019.2,202008091500
28.3,8.0,1018.9,202008091530
28.2,7.6,1018.8,202008091600
28.2,7.4,1018.6,202008091630
27.9,8.1,1018.4,202008091700
27.7,8.0,1018.3,202008091730
27.3,8.8,1018.3,202008091800
26.9,10.3,1018.2,202008091830
26.4,11.5,1018.2,202008091900
26.1,11.8,1018.5,202008091930
26.1,12.0,1018.5,202008092000
25.9,11.3,1018.5,202008092030
25.7,12.1,1018.5,202008092100
25.6,11.0,1018.6,202008092130
25.5,10.8,1018.5,202008092200
24.9,12.6,1018.3,202008092230
24.8,13.1,1018.2,202008092300
24.5,15.3,1018.0,202008092330
24.6,15.1,1017.9,202008100000
24.0,18.1,1017.8,202008100030
23.9,19.7,1017.5,202008100100
23.9,19.7,1017.5,202008100130
22.9,22.8,1017.3,202008100200
22.8,24.5,1017.2,202008100230
22.3,25.7,1017.1,202008100300
22.0,26.8,1017.2,202008100330
21.2,32.4,1017.2,202008100400
21.2,33.7,1017.3,202008100430
21.4,32.7,1017.5,202008100500
22.4,28.5,1017.5,202008100530
23.3,25.1,1017.4,202008100600
24.8,24.0,1017.5,202008100630
28.2,17.3,1017.5,202008100700
28.9,15.3,1017.5,202008100730
26.9,16.7,1017.5,202008100800
27.9,16.0,1017.4,202008100830
28.5,16.7,1017.5,202008100900
26.3,19.8,1017.3,202008100930
26.0,18.7,1017.2,202008101000
26.5,16.3,1017.2,202008101030
26.7,16.5,1017.1,202008101100
27.4,17.0,1017.0,202008101130
27.6,12.1,1016.9,202008101200
28.1,10.3,1016.8,202008101230
27.9,11.6,1016.8,202008101300
28.1,11.6,1016.4,202008101330
28.1,11.1,1016.3,202008101400
28.4,9.1,1016.2,202008101430
28.5,9.3,1016.1,202008101500
28.7,10.3,1016.0,202008101530
28.6,9.6,1016.0,202008101600
28.4,9.6,1016.0,202008101630
28.2,10.1,1015.9,202008101700
27.9,11.8,1015.9,202008101730
27.7,12.0,1016.0,202008101800
27.3,12.6,1016.2,202008101830
26.9,13.3,1016.7,202008101900
26.5,13.6,1016.9,202008101930
26.2,14.6,1017.2,202008102000
26.3,13.3,1017.2,202008102030
26.1,14.5,1017.5,202008102100
24.5,18.2,1017.8,202008102130
23.3,31.2,1017.8,202008102200
22.9,37.9,1017.7,202008102230
22.5,44.5,1017.7,202008102300
22.5,43.4,1017.6,202008102330
22.3,47.7,1017.5,202008110000
